When you browse on this site, cookies collect data to enhance your experience and personalize the content and advertising you see.
Visit our Privacy Policy to learn more. By continuing to use the site, you agree to this use of cookies and data.
  • In Switzerland
  • List of Countries
  • For 7 days
  • Water Temperature
  • Satellite Maps
  • Weather Map
  • Weather Widgets
  • user-avatar
    Login

    Hourly Weather Dzhalalabad

    Today, 26 March, Tuesday

    Time Temperature Precipitation Wind Pressure Humidity
    00:00 +13°C° 0 mm 3 mps 699 mmHg 29%
    01:00 +12°C° 0 mm 3 mps 699 mmHg 28%
    02:00 +12°C° 0 mm 3 mps 699 mmHg 28%
    03:00 +11°C° 0 mm 3 mps 699 mmHg 28%
    04:00 +11°C° 0 mm 3 mps 699 mmHg 27%
    05:00 +11°C° 0 mm 3 mps 699 mmHg 27%
    06:00 +12°C° 0 mm 3 mps 699 mmHg 26%
    07:00 +13°C° 0 mm 3 mps 699 mmHg 25%
    08:00 +14°C° 0 mm 3 mps 699 mmHg 24%
    09:00 +17°C° 0 mm 3 mps 698 mmHg 20%
    10:00 +19°C° 0 mm 3 mps 698 mmHg 17%
    11:00 +22°C° 0 mm 3 mps 697 mmHg 13%
    12:00 +24°C° 0 mm 3 mps 697 mmHg 13%
    13:00 +25°C° 0 mm 4 mps 696 mmHg 12%
    14:00 +26°C° 0 mm 4 mps 696 mmHg 11%
    15:00 +25°C° 0 mm 4 mps 696 mmHg 12%
    16:00 +25°C° 0 mm 4 mps 695 mmHg 14%
    17:00 +25°C° 0 mm 4 mps 695 mmHg 16%
    18:00 +22°C° 0 mm 3 mps 695 mmHg 19%
    19:00 +21°C° 0 mm 2 mps 695 mmHg 23%
    20:00 +20°C° 0 mm 1 mps 695 mmHg 27%
    21:00 +20°C° 0 mm 1 mps 694 mmHg 28%
    22:00 +18°C° 0 mm 2 mps 694 mmHg 29%
    23:00 +18°C° 0 mm 2 mps 694 mmHg 29%

    Tomorrow, 27 March, Wednesday

    Time Temperature Precipitation Wind Pressure Humidity
    00:00 +19°C° 0 mm 1 mps 694 mmHg 30%
    01:00 +18°C° 0 mm 1 mps 694 mmHg 31%
    02:00 +18°C° 0 mm 1 mps 693 mmHg 31%
    03:00 +18°C° 0 mm 1 mps 693 mmHg 31%
    04:00 +16°C° 0 mm 1 mps 693 mmHg 31%
    05:00 +16°C° 0 mm 1 mps 694 mmHg 32%
    06:00 +18°C° 0 mm 1 mps 694 mmHg 32%
    07:00 +18°C° 0 mm 1 mps 694 mmHg 32%
    08:00 +18°C° 0 mm 1 mps 694 mmHg 33%
    09:00 +19°C° 0 mm 1 mps 694 mmHg 30%
    10:00 +20°C° 0 mm 1 mps 693 mmHg 28%
    11:00 +19°C° 0 mm 2 mps 693 mmHg 26%
    12:00 +20°C° 0 mm 2 mps 692 mmHg 25%
    13:00 +21°C° 0 mm 2 mps 692 mmHg 24%
    14:00 +23°C° 0 mm 2 mps 691 mmHg 23%
    15:00 +21°C° 0 mm 3 mps 691 mmHg 24%
    16:00 +21°C° 0 mm 3 mps 691 mmHg 25%
    17:00 +21°C° 0 mm 3 mps 691 mmHg 26%
    18:00 +19°C° 0 mm 3 mps 692 mmHg 29%
    19:00 +18°C° 0 mm 2 mps 692 mmHg 32%
    20:00 +18°C° 0 mm 1 mps 693 mmHg 34%
    21:00 +18°C° 0 mm 1 mps 693 mmHg 37%
    22:00 +16°C° 0 mm 2 mps 693 mmHg 39%
    23:00 +16°C° 0 mm 3 mps 693 mmHg 42%

    Day after tomorrow, 28 March, Thursday

    Time Temperature Precipitation Wind Pressure Humidity
    00:00 +16°C° 0 mm 3 mps 693 mmHg 44%
    01:00 +15°C° 0 mm 2 mps 693 mmHg 46%
    02:00 +15°C° 0 mm 2 mps 692 mmHg 48%
    03:00 +15°C° 0.5 mm 2 mps 692 mmHg 53%
    04:00 +14°C° 0.5 mm 2 mps 692 mmHg 58%
    05:00 +14°C° 0.5 mm 2 mps 693 mmHg 63%
    06:00 +14°C° 0.4 mm 2 mps 693 mmHg 62%
    07:00 +14°C° 0.4 mm 3 mps 694 mmHg 61%
    08:00 +15°C° 0.4 mm 4 mps 694 mmHg 61%
    09:00 +17°C° 0 mm 3 mps 694 mmHg 55%
    10:00 +19°C° 0 mm 3 mps 695 mmHg 49%
    11:00 +20°C° 0 mm 2 mps 695 mmHg 43%
    12:00 +21°C° 0 mm 2 mps 695 mmHg 40%
    13:00 +23°C° 0 mm 1 mps 695 mmHg 36%
    14:00 +24°C° 0 mm 1 mps 695 mmHg 32%
    15:00 +24°C° 0 mm 1 mps 695 mmHg 33%
    16:00 +24°C° 0 mm 1 mps 694 mmHg 33%
    17:00 +24°C° 0 mm 1 mps 694 mmHg 33%
    18:00 +23°C° 0 mm 1 mps 695 mmHg 37%
    19:00 +22°C° 0 mm 1 mps 695 mmHg 40%
    20:00 +21°C° 0 mm 1 mps 695 mmHg 44%
    21:00 +20°C° 0 mm 1 mps 695 mmHg 45%
    22:00 +19°C° 0 mm 1 mps 695 mmHg 46%
    23:00 +18°C° 0 mm 1 mps 695 mmHg 47%

    29 March, Friday

    Time Temperature Precipitation Wind Pressure Humidity
    00:00 +18°C° 0 mm 1 mps 694 mmHg 46%
    01:00 +16°C° 0 mm 1 mps 694 mmHg 46%
    02:00 +16°C° 0 mm 1 mps 694 mmHg 46%
    03:00 +16°C° 0 mm 1 mps 693 mmHg 44%
    04:00 +15°C° 0 mm 2 mps 693 mmHg 43%
    05:00 +15°C° 0 mm 2 mps 692 mmHg 41%
    06:00 +16°C° 0 mm 2 mps 692 mmHg 40%
    07:00 +16°C° 0 mm 2 mps 692 mmHg 38%
    08:00 +17°C° 0 mm 2 mps 692 mmHg 37%
    09:00 +18°C° 0 mm 2 mps 692 mmHg 38%
    10:00 +19°C° 0 mm 3 mps 691 mmHg 40%
    11:00 +19°C° 0 mm 4 mps 691 mmHg 41%
    12:00 +20°C° 0 mm 3 mps 690 mmHg 41%
    13:00 +21°C° 0 mm 3 mps 690 mmHg 40%
    14:00 +21°C° 0 mm 2 mps 689 mmHg 39%
    15:00 +21°C° 0 mm 2 mps 689 mmHg 41%
    16:00 +21°C° 0 mm 2 mps 688 mmHg 42%
    17:00 +20°C° 0 mm 2 mps 688 mmHg 43%
    18:00 +20°C° 0 mm 2 mps 688 mmHg 47%
    19:00 +19°C° 0 mm 2 mps 689 mmHg 51%
    20:00 +18°C° 0 mm 2 mps 689 mmHg 55%
    21:00 +18°C° 0 mm 2 mps 689 mmHg 61%
    22:00 +17°C° 0 mm 2 mps 689 mmHg 67%
    23:00 +16°C° 0 mm 2 mps 689 mmHg 72%

    30 March, Saturday

    Time Temperature Precipitation Wind Pressure Humidity
    00:00 +15°C° 0.1 mm 2 mps 689 mmHg 76%
    01:00 +15°C° 0.1 mm 2 mps 689 mmHg 80%
    02:00 +13°C° 0.1 mm 3 mps 689 mmHg 84%
    03:00 +13°C° 0.4 mm 3 mps 690 mmHg 84%
    04:00 +13°C° 0.4 mm 4 mps 690 mmHg 83%
    05:00 +12°C° 0.4 mm 4 mps 690 mmHg 83%
    06:00 +12°C° 0.6 mm 5 mps 691 mmHg 82%
    07:00 +10°C° 0.6 mm 5 mps 691 mmHg 81%
    08:00 +10°C° 0.6 mm 5 mps 692 mmHg 80%
    09:00 +11°C° 1 mm 4 mps 692 mmHg 75%
    10:00 +12°C° 1 mm 3 mps 692 mmHg 71%
    11:00 +12°C° 1 mm 3 mps 693 mmHg 66%
    12:00 +12°C° 0.4 mm 3 mps 693 mmHg 64%
    13:00 +13°C° 0.4 mm 3 mps 693 mmHg 62%
    14:00 +13°C° 0.4 mm 3 mps 693 mmHg 60%
    15:00 +14°C° 0 mm 3 mps 693 mmHg 58%
    16:00 +14°C° 0 mm 3 mps 694 mmHg 57%
    17:00 +14°C° 0 mm 3 mps 694 mmHg 55%
    18:00 +14°C° 0 mm 3 mps 695 mmHg 58%
    19:00 +14°C° 0 mm 2 mps 695 mmHg 60%
    20:00 +13°C° 0 mm 2 mps 696 mmHg 63%
    21:00 +13°C° 0 mm 2 mps 696 mmHg 62%
    22:00 +13°C° 0 mm 2 mps 696 mmHg 62%
    23:00 +12°C° 0 mm 2 mps 696 mmHg 61%

    31 March, Sunday

    Time Temperature Precipitation Wind Pressure Humidity
    00:00 +12°C° 0 mm 2 mps 696 mmHg 60%
    01:00 +12°C° 0 mm 2 mps 696 mmHg 58%
    02:00 +12°C° 0 mm 2 mps 696 mmHg 56%
    03:00 +10°C° 0 mm 2 mps 696 mmHg 55%
    04:00 +10°C° 0 mm 2 mps 696 mmHg 53%
    05:00 +10°C° 0 mm 2 mps 696 mmHg 51%
    06:00 +12°C° 0 mm 1 mps 696 mmHg 47%
    07:00 +13°C° 0 mm 1 mps 696 mmHg 44%
    08:00 +14°C° 0 mm 1 mps 696 mmHg 41%
    09:00 +16°C° 0 mm 1 mps 696 mmHg 38%
    10:00 +18°C° 0 mm 1 mps 696 mmHg 35%
    11:00 +19°C° 0 mm 2 mps 695 mmHg 32%
    12:00 +19°C° 0 mm 2 mps 695 mmHg 31%
    13:00 +20°C° 0 mm 2 mps 695 mmHg 30%
    14:00 +21°C° 0 mm 2 mps 695 mmHg 29%
    15:00 +21°C° 0 mm 2 mps 695 mmHg 30%
    16:00 +22°C° 0 mm 1 mps 695 mmHg 31%
    17:00 +21°C° 0 mm 1 mps 695 mmHg 32%
    18:00 +20°C° 0 mm 1 mps 696 mmHg 35%
    19:00 +19°C° 0 mm 1 mps 696 mmHg 37%
    20:00 +18°C° 0 mm 1 mps 697 mmHg 39%
    21:00 +17°C° 0 mm 2 mps 697 mmHg 39%
    22:00 +16°C° 0 mm 2 mps 697 mmHg 39%
    23:00 +16°C° 0 mm 2 mps 697 mmHg 39%
    Show more